Overview Statistics Trail Chart Weather Telemetry Raw packets
 

This is the latest recevied weather packets stored in our database for station/object 4S6DRJ-13. If no packets are shown the sender has not sent any weather packets the latest 10 day(s).

<< 44 45 46 47 48 49 50 >>
Time Temp. Humidity Pressure Rain* Wind** Luminosity Snow
1788381546 27.78° C 86% 1009.3 hPa 0 mm 0.45 m/s, 223° 0 W/m² -
1788381485 27.78° C 86% 1009.3 hPa 0 mm 0.89 m/s, 247° 0 W/m² -
1788381424 27.78° C 86% 1009.4 hPa 0 mm 0 m/s 0 W/m² -
1788381363 27.78° C 86% 1009.2 hPa 0 mm 1.34 m/s, 215° 0 W/m² -
1788381302 27.78° C 86% 1009.2 hPa 0 mm 0.89 m/s, 209° 0 W/m² -
1788381241 27.78° C 86% 1009.4 hPa 0 mm 0.89 m/s, 213° 0 W/m² -
1788381179 27.78° C 86% 1009 hPa 0 mm 0.45 m/s, 245° 0 W/m² -
1788381118 27.78° C 86% 1009.4 hPa 0 mm 0.45 m/s, 221° 0 W/m² -
1788381057 27.78° C 86% 1009.4 hPa 0 mm 0 m/s 0 W/m² -
1788380997 27.78° C 86% 1009.3 hPa 0 mm 0 m/s 0 W/m² -
1788380936 27.78° C 86% 1009.4 hPa 0 mm 0 m/s 0 W/m² -
1788380875 27.78° C 86% 1009.3 hPa 0 mm 0.45 m/s, 174° 0 W/m² -
1788380814 27.78° C 86% 1009.3 hPa 0 mm 0 m/s 0 W/m² -
1788380752 27.78° C 86% 1009.2 hPa 0 mm 0 m/s 0 W/m² -
1788380691 27.78° C 86% 1009.4 hPa 0 mm 0.45 m/s, 193° 0 W/m² -
1788380630 27.78° C 86% 1009.3 hPa 0 mm 1.34 m/s, 216° 0 W/m² -
1788380569 27.78° C 86% 1009.4 hPa 0 mm 0.89 m/s, 202° 0 W/m² -
1788380509 27.78° C 86% 1009.4 hPa 0 mm 0 m/s 0 W/m² -
1788380448 27.78° C 86% 1009.3 hPa 0 mm 0 m/s 0 W/m² -
1788380387 27.78° C 86% 1009.2 hPa 0 mm 1.34 m/s, 230° 0 W/m² -
1788380326 27.78° C 86% 1009.3 hPa 0 mm 0.45 m/s, 241° 0 W/m² -
1788380265 27.78° C 86% 1009.3 hPa 0 mm 0.89 m/s, 220° 0 W/m² -
1788380204 27.78° C 86% 1009.3 hPa 0 mm 0 m/s 0 W/m² -
1788380143 27.78° C 86% 1009.5 hPa 0 mm 0.45 m/s, 263° 0 W/m² -
1788380082 27.78° C 86% 1009.4 hPa 0 mm 0.89 m/s, 206° 0 W/m² -

* Rain latest hour (hover to see other rain measurements)
** Current wind speed in m/s (hover to see current wind gust speed)